www.pogodaiklimat.ru

Погода и климат >> Архив погоды >> Вьетнам >> Дананг


ПОГОДА в Дананге

  • Прогноз погоды в Дананге
  • Монитор погоды в Дананге

АРХИВ ПОГОДЫ в Дананге

Время (UTC), дата Ветер
(напр.,м/с)
 
Видим.   Явления Облачность Т
(С)
Тd
(С)
f
(%)
Тe
(С)
Тes
(С)
Комфортность P
(гПа)
Po
(гПа)
Тmin
(С)
Tmax
(С)
R
(мм)
R24
(мм)
S
(см)
12 17.06 ЮВ 2 20 км 9/4 600 м
[Cb cap Cs]
+32.2 +23.5 60 +43 +43 опасность
перегрева
1004.9 1004.1 +36.8
15 17.06 штиль 0 20 км 9/4 600 м
[Cu Sc Cs]
+30.7 +24.7 70 +43 +43 опасность
перегрева
1006.5 1005.7
18 17.06 Ю 1 20 км 9/1 1500 м
[Sc Cs]
+28.8 +23.9 75 +40 +40 очень
душно
1005.4 1004.6
21 17.06 Ю 1 20 км 9/1 1500 м
[Sc Cs]
+27.6 +23.9 80 +38 +38 очень
душно
1004.4 1003.6
00 18.06 ЮЗ 1 20 км 9/3 600 м
[Cu Sc Cs]
+29.0 +24.4 76 +41 +43 опасность
перегрева
1005.5 1004.7 +27.6
03 18.06 С 1 20 км 9/4 600 м
[Cu Sc Ac lent Cs]
+34.8 +23.0 50 +45 +52 опасность
перегрева
1006.0 1005.2
06 18.06 ЮВ 3 20 км 9/6 600 м
[Cb cap Cs]
+35.1 +24.0 53 +47 +53 опасность
перегрева
1004.8 1004.0
09 18.06 З 1 10 км гроза без осадков {ливн. осадки} 9/9 600 м
[Cb cap]
+30.0 +23.6 69 +41 +42 опасность
перегрева
1004.6 1003.8
12 18.06 ЮЗ 1 20 км {гроза, ливн. осадки} 9/3 600 м
[Cb cap Cs]
+28.9 +25.3 81 +42 +42 опасность
перегрева
1005.5 1004.7 +35.7 0.4
15 18.06 штиль 0 20 км 9/3 1500 м
[Sc Cs]
+28.6 +25.7 84 +42 +42 опасность
перегрева
1007.0 1006.2
18 18.06 Ю 1 20 км 9/9 600 м
[Cu Sc]
+28.2 +25.8 87 +42 +42 опасность
перегрева
1006.4 1005.6
21 18.06 штиль 0 20 км 8/3 1500 м
[Sc Cs]
+27.3 +25.6 90 +40 +40 очень
душно
1005.7 1004.9
00 19.06 штиль 0 20 км 8/0
[Cs]
+28.5 +25.2 82 +41 +45 опасность
перегрева
1006.7 1005.9 +27.3
03 19.06 В 2 20 км 8/3 600 м
[Cu med, cong Ac trans Cs]
+34.7 +24.2 55 +47 +55 опасность
перегрева
1007.3 1006.5
06 19.06 В 3 20 км 8/3 600 м
[Cu med, cong Cs]
+34.5 +24.1 55 +47 +57 опасность
перегрева
1005.5 1004.7
09 19.06 В 2 20 км 8/3 600 м
[Cu med, cong Cs]
+34.0 +24.2 57 +46 +50 опасность
перегрева
1003.5 1002.7
12 19.06 ЮВ 2 20 км 9/8
[Cu Sc Cs]
+31.2 +26.1 74 +47 +47 опасность
перегрева
1005.9 1005.1 +35.3
15 19.06 З 1 20 км 9/8 600 м
[Cu Sc Cs]
+31.0 +26.1 75 +46 +46 опасность
перегрева
1007.1 1006.3
18 19.06 З 2 10 км 9/9 600 м
[Cu Sc]
+30.1 +25.7 77 +44 +44 опасность
перегрева
1006.8 1006.0
21 19.06 штиль 0 10 км 9/9 600 м
[Cu Sc]
+29.0 +24.4 76 +41 +41 опасность
перегрева
1006.3 1005.5
00 20.06 Ю 1 20 км 9/8
[Cu Sc Cs]
+28.8 +24.2 76 +40 +41 очень
душно
1007.2 1006.4 +28.4
03 20.06 В 1 20 км 9/4 600 м
[Cu Sc Ac trans Cs]
+33.2 +24.0 59 +45 +53 опасность
перегрева
1007.1 1006.3
06 20.06 В 3 20 км 8/3 600 м
[Cb calv Cs]
+34.6 +24.5 56 +47 +57 опасность
перегрева
1005.5 1004.7
09 20.06 В 4 20 км 8/1 600 м
[Cb calv Cs]
+33.6 +26.4 66 +50 +53 опасность
перегрева
1003.9 1003.1
12 20.06 В 1 20 км 8/0
[Cs]
+31.4 +26.1 74 +47 +47 опасность
перегрева
1005.2 1004.4 +35.4
15 20.06 ЮВ 1 20 км 9/4 1500 м
[Sc Cs]
+30.8 +26.6 78 +47 +47 опасность
перегрева
1006.9 1006.1
18 20.06 В 1 20 км 8/0
[Cs]
+30.2 +27.1 84 +48 +48 опасность
перегрева
1005.6 1004.8
21 20.06 Ю 1 20 км 9/5
[Sc Cs]
+28.6 +25.0 81 +41 +41 опасность
перегрева
1004.9 1004.1
00 21.06 ЮЗ 1 20 км 9/3 1500 м
[Sc Ac lent Cs]
+29.2 +26.9 87 +46 +47 опасность
перегрева
1006.4 1005.6 +28.0
03 21.06 ЮВ 1 20 км 8/1 600 м
[Cu med, cong Cs]
+34.3 +25.6 61 +49 +65 опасность
перегрева
1006.0 1005.2
06 21.06 В 4 20 км 8/3 600 м
[Cu med, cong Cs]
+34.1 +26.0 63 +50 +58 опасность
перегрева
1004.6 1003.8
09 21.06 В 2 20 км 8/3 600 м
[Cb cap Cs]
+33.6 +25.8 64 +49 +52 опасность
перегрева
1003.3 1002.5
12 21.06 В 1 20 км 8/3 600 м
[Cb cap Cs]
+31.4 +26.8 77 +49 +49 опасность
перегрева
1005.3 1004.5 +35.2
15 21.06 штиль 0 20 км 8/1 600 м
[Cu med, cong Cs]
+30.4 +25.6 76 +45 +45 опасность
перегрева
1005.8 1005.0
18 21.06 штиль 0 20 км 6/0
[Cs]
+28.2 +23.4 75 +38 +38 очень
душно
1005.1 1004.3
21 21.06 Ю 1 20 км ясно +26.8 +22.9 79 +36 +36 очень
душно
1004.2 1003.4
00 22.06 Ю 1 20 км 4/0
[Cs]
+28.7 +23.6 74 +39 +43 очень
душно
1005.4 1004.6 +26.8
03 22.06 Ю 2 20 км 8/3 600 м
[Cu Sc Cs]
+34.0 +24.6 58 +47 +58 опасность
перегрева
1004.8 1004.0
06 22.06 В 4 20 км 8/3 600 м
[Cu Sc Cs]
+34.4 +25.9 61 +50 +58 опасность
перегрева
1003.0 1002.2
09 22.06 В 3 20 км 9/3 600 м
[Cu Sc Cs]
+32.8 +26.2 68 +49 +51 опасность
перегрева
1001.6 1000.8
12 22.06 ЮВ 2 20 км 9/3 600 м
[Cb cap Cs]
+31.0 +26.8 78 +48 +48 опасность
перегрева
1003.1 1002.3 +36.0
15 22.06 штиль 0 20 км 9/0
[Cs]
+30.4 +25.3 74 +44 +44 опасность
перегрева
1005.0 1004.2
18 22.06 Ю 1 20 км 8/0
[Cs]
+29.5 +26.1 82 +45 +45 опасность
перегрева
1003.7 1002.9
21 22.06 штиль 0 20 км 8/0
[Cs]
+28.4 +23.4 74 +38 +38 очень
душно
1002.4 1001.6
00 23.06 штиль 0 20 км 8/0
[Cs]
+29.9 +23.3 68 +40 +44 очень
душно
1003.5 1002.7 +28.1
03 23.06 СЗ 1 20 км 8/0
[Cs]
+35.9 +23.6 49 +47 +64 опасность
перегрева
1004.5 1003.7
06 23.06 В 3 20 км 8/1 600 м
[Cu med, cong Cs]
+34.9 +24.6 55 +48 +60 опасность
перегрева
1003.3 1002.5
09 23.06 В 1 20 км 8/3 600 м
[Cu med, cong Cs]
+33.6 +25.4 62 +48 +52 опасность
перегрева
1002.2 1001.4
12 23.06 В 1 20 км зарница 9/3
[Cb cap Cs]
+31.0 +25.8 74 +46 +46 опасность
перегрева
1003.6 1002.8 +36.8
15 23.06 В 1 20 км 9/1 1500 м
[Sc Cs]
+30.3 +27.1 83 +48 +48 опасность
перегрева
1005.7 1004.9
18 23.06 Ю 1 20 км 9/0
[Cs]
+29.6 +25.2 77 +43 +43 опасность
перегрева
1005.1 1004.3
21 23.06 штиль 0 20 км 9/0
[Cs]
+29.0 +25.0 79 +42 +42 опасность
перегрева
1004.4 1003.6
00 24.06 штиль 0 20 км 9/8
[Cu Sc Cs]
+29.5 +25.2 78 +43 +44 опасность
перегрева
1005.4 1004.6 +28.7
03 24.06 Ю 2 20 км 9/1 1500 м
[Sc Ac trans Cs]
+36.1 +23.4 48 +47 +56 опасность
перегрева
1005.7 1004.9
06 24.06 нст 1 20 км 9/3 600 м
[Cb calv Ac lent Cs]
+36.6 +24.8 51 +50 +59 опасность
перегрева
1004.4 1003.6

 

Местоположение метеостанции Дананг (Вьетнам): широта 16.07 долгота 108.35 высота над уровнем моря 7 м.

В архиве по умолчанию представлена погода в Дананге за последнюю неделю. Архивные данные за месяц целиком и за предыдущие месяцы, начиная с января 2011 года, Вы можете получить, выбрав интересующий диапазон дат из раскрывающегося списка и нажав кнопку "Ввод!".


*Определитесь, кто Вы:
робот инопланетянин человек

Внимание! Время в таблицах - всемирное. Для получения местного времени необходимо прибавить поправку, которая равна 7 ч.

Смотрите также архив погоды в соседних городах и на ближайших метеорологических станциях:

Погода в Хюэ (Вьетнам) (91 км)
Погода в Куангнгае (Вьетнам) (114 км)
Погода в Секонге (Лаос) (190 км)
Погода в Сараване (Лаос) (211 км)
Погода в Аттапы (Лаос) (215 км)
Погода в Плейку (Вьетнам) (235 км)
Погода в Донгхое (Вьетнам) (244 км)
Погода в Ясяне (Хайнань, Китай) (270 км)
Погода в Куинёне (Вьетнам) (272 км)
Погода в Паксе (Лаос) (295 км)

Пояснения к столбцам:

Ветер - указаны скорость ветра в м/с - средняя за 10 мин, порывы в срок и между сроками (в фигурных скобках) и направление, откуда дует ветер: С - северный, СВ - северо-восточный, В - восточный, ЮВ - юго-восточный, Ю - южный, ЮЗ - юго-западный, З - западный, СЗ - северо-западный.
Видимость - горизонтальная дальность видимости в метрах или километрах. При видимости от 1 до 10 км при отсутствии осадков обычно наблюдается дымка, при ухудшении видимости до 1 км и менее - туман. В сухую погоду видимость может ухудшаться дымом, пылью или мглою.
Явления - указаны атмосферные явления, наблюдавшиеся в срок или в последний час перед сроком; фигурными скобками обозначены явления, наблюдавшиеся между сроками (за 1-3 часа до срока); квадратными скобками обозначены град или гололедные отложения с указанием их диаметра в мм.
Облачность - указаны через наклонную черту общая и нижняя облачность в баллах и высота нижней границы облаков в метрах; квадратными скобками обозначены формы облаков: Ci - перистые, Cs - перисто-слоистые, Cc - перисто-кучевые, Ac - высококучевые, As - высокослоистые, Sc - слоисто-кучевые, Ns - слоисто-дождевые, Cu - кучевые, Cb - кучево-дождевые. Подробнее классификацию облаков см. в Атласе облаков (PDF).
T - Температура воздуха - температура, измеренная на высоте 2 м над землей.
Td - Температура точки росы - температура, при понижении до которой содержащийся в воздухе водяной пар достигнет насыщения.
f - Относительная влажность воздуха - влажноcть воздуха, измеренная на высоте 2 м над землей.
Te - Эффективная температура - температура, которую ощущает одетый по сезону человек в тени. Характеристика душности погоды. При расчете учитывается влияние влажности воздуха и скорости ветра на теплоощущения человека.
Tes - Эффективная температура на солнце - температура, которую ощущает человек, с поправкой на солнечный нагрев. Характеристика знойности погоды. Зависит от высоты солнца над горизонтом, облачности и скорости ветра. Ночью, в пасмурную погоду, а также при ветре 12 м/с и более поправка равна нулю.
P - Атмосферное давление - приведенное к уровню моря атмосферное давление.
Po - Атмосферное давление - измеренное на уровне метеостанции атмосферное давление.
Tmin - Минимальная температура - минимум температуры воздуха на высоте 2 м над землей.
Tmax - Максимальная температура - максимум температуры воздуха на высоте 2 м над землей.
R - Количество осадков - Количество выпавших осадков за период времени, мм. При наведении курсора мыши на число - период времени, за который выпало указанное количество осадков.
R24 - Количество осадков - Количество выпавших осадков за 24 часа, мм.
S - Снежный покров - Высота снежного покрова, см. При наведении курсора мыши на число - состояние снежного покрова и степень покрытия местности в баллах.